Date String (YYYY-MM-DD hh:mm:ss) UTC,Instrument flags,absolute air pressure of the measurement (hPa),sample flow rate (lpm),inlet stack bypass flow (lpm),air temperature of the measurement (°C),ambient temperature measured by the external sensor (°C),aerosol sample conditioner tube jacket temperature (°C),OPC LED temperature (°C),internal box temperature (°C),relative humidity of the measurement (%),span deviation,mass concentration of particles derived from Lorenz-Mie calculation of OPC scattering (μg/m³),mass concentration of particles derived from Lorenz-Mie calculation of OPC scattering (μg/m³),mass concentration of particles derived from Lorenz-Mie calculation of OPC scattering (μg/m³)
DateTimeUTC,F1_M11,P_M11,Q1_M11,Q2_M11,T1_M11,T2_M11,T3_M11,T4_M11,T5_M11,U1_M11,ZSPAN_M11,X0_M11,X2_M11,X1_M11
2023-11-07 00:00:00,SystemResetWarning,0823.6,4.99,000.00,028.1,027.3,000.0,036.2,029.7,10.4,0000.0,0017.70,0005.79,0004.61
2023-11-07 00:01:00,SystemResetWarning,0823.5,5.00,000.00,028.1,025.5,000.0,036.2,029.5,10.7,0000.0,0018.21,0005.76,0004.60
2023-11-07 00:02:00,SystemResetWarning,0823.5,5.00,000.00,027.9,023.4,000.0,036.1,029.1,10.9,0000.0,0018.80,0005.78,0004.61
2023-11-07 00:03:00,SystemResetWarning,0823.5,5.01,000.00,027.8,023.1,000.0,036.1,028.8,11.0,0000.0,0019.76,0005.83,0004.62
2023-11-07 00:04:00,SystemResetWarning,0823.6,5.02,000.00,027.6,023.5,000.0,036.0,028.5,11.1,0000.0,0019.49,0005.84,0004.62
2023-11-07 00:05:00,SystemResetWarning,0823.6,4.99,000.00,027.5,024.0,000.0,036.0,028.4,11.2,0000.0,0019.74,0005.86,0004.62
2023-11-07 00:06:00,SystemResetWarning,0823.6,5.00,000.00,027.4,024.5,000.0,035.9,028.5,11.2,0000.0,0019.82,0005.92,0004.63
2023-11-07 00:07:00,SystemResetWarning,0823.6,5.01,000.00,027.4,024.9,000.0,035.9,028.6,11.2,0000.0,0019.75,0005.92,0004.64
2023-11-07 00:08:00,SystemResetWarning,0823.6,5.00,000.00,027.4,025.3,000.0,035.9,028.7,11.3,0000.0,0019.79,0005.94,0004.65
2023-11-07 00:09:00,SystemResetWarning,0823.6,4.99,000.00,027.4,025.6,000.0,035.8,028.8,11.3,0000.0,0019.83,0005.93,0004.64
2023-11-07 00:10:00,SystemResetWarning,0823.6,5.00,000.00,027.4,025.8,000.0,035.8,028.8,11.3,0000.0,0020.27,0005.90,0004.62
2023-11-07 00:11:00,SystemResetWarning,0823.7,5.00,000.00,027.4,026.0,000.0,035.8,028.9,11.3,0000.0,0020.85,0005.90,0004.61
2023-11-07 00:12:00,SystemResetWarning,0823.8,5.00,000.00,027.4,026.2,000.0,035.8,028.9,11.3,0001.6,0020.20,0005.92,0004.61
2023-11-07 00:13:00,SystemResetWarning,0823.8,5.00,000.00,027.5,026.3,000.0,035.8,029.0,11.3,0001.3,0018.73,0005.88,0004.61
2023-11-07 00:14:00,SystemResetWarning,0823.7,5.00,000.00,027.5,026.4,000.0,035.8,029.0,11.2,0003.5,0019.41,0005.88,0004.62
2023-11-07 00:15:00,SystemResetWarning,0823.7,5.00,000.00,027.5,026.5,000.0,035.8,029.1,11.3,0005.5,0020.09,0005.86,0004.61
2023-11-07 00:16:00,SystemResetWarning,0823.7,5.00,000.00,027.6,026.6,000.0,035.8,029.1,11.3,0005.6,0019.45,0005.88,0004.61
2023-11-07 00:17:00,SystemResetWarning,0823.7,5.00,000.00,027.6,026.7,000.0,035.8,029.2,11.4,0005.7,0019.45,0005.84,0004.61
2023-11-07 00:18:00,SystemResetWarning,0823.6,5.00,000.00,027.6,026.7,000.0,035.9,029.2,11.3,0005.5,0019.59,0005.82,0004.58
2023-11-07 00:19:00,SystemResetWarning,0823.6,5.00,000.00,027.6,026.8,000.0,035.9,029.3,11.3,0005.2,0020.57,0005.86,0004.56
2023-11-07 00:20:00,SystemResetWarning,0823.6,5.00,000.00,027.7,026.8,000.0,035.9,029.3,11.0,0005.1,0021.62,0005.84,0004.55
2023-11-07 00:21:00,SystemResetWarning,0823.6,5.00,000.00,027.7,026.9,000.0,035.9,029.3,10.9,0005.2,0021.94,0005.82,0004.56
2023-11-07 00:22:00,SystemResetWarning,0823.6,5.00,000.00,027.7,027.0,000.0,035.9,029.4,10.8,0004.8,0021.48,0005.89,0004.57
2023-11-07 00:23:00,SystemResetWarning,0823.6,5.00,000.00,027.8,027.0,000.0,036.0,029.4,10.8,0005.0,0021.58,0005.91,0004.58
2023-11-07 00:24:00,SystemResetWarning,0823.6,5.00,000.00,027.8,027.0,000.0,036.0,029.4,10.9,0005.2,0022.28,0005.93,0004.58
2023-11-07 00:25:00,SystemResetWarning,0823.7,5.00,000.00,027.8,027.1,000.0,036.0,029.4,11.0,0005.4,0022.86,0005.94,0004.58
2023-11-07 00:26:00,SystemResetWarning,0823.6,5.00,000.00,027.9,027.1,000.0,036.0,029.5,11.0,0005.5,0022.03,0005.92,0004.56
2023-11-07 00:27:00,SystemResetWarning,0823.6,5.00,000.00,027.9,027.1,000.0,036.1,029.5,11.0,0005.8,0021.79,0005.93,0004.56
2023-11-07 00:28:00,SystemResetWarning,0823.6,5.00,000.00,027.9,027.2,000.0,036.1,029.5,11.0,0005.9,0023.38,0005.94,0004.56
2023-11-07 00:29:00,SystemResetWarning,0823.6,5.00,000.00,028.0,027.2,000.0,036.1,029.5,11.0,0005.6,0023.93,0006.00,0004.58
2023-11-07 00:30:00,SystemResetWarning,0823.6,5.00,000.00,028.0,027.2,000.0,036.1,029.6,11.0,0005.7,0022.53,0005.96,0004.59
2023-11-07 00:31:00,SystemResetWarning,0823.6,4.99,000.00,028.0,027.2,000.0,036.2,029.6,11.0,0005.6,0020.76,0005.95,0004.60
2023-11-07 00:32:00,SystemResetWarning,0823.6,5.00,000.00,028.0,027.3,000.0,036.2,029.6,11.0,0005.6,0019.95,0005.96,0004.59
2023-11-07 00:33:00,SystemResetWarning,0823.6,5.00,000.00,028.1,027.3,000.0,036.2,029.7,10.9,0005.2,0020.43,0005.91,0004.58
2023-11-07 00:34:00,SystemResetWarning,0823.6,5.00,000.00,028.1,027.3,000.0,036.2,029.7,10.9,0006.0,0021.86,0005.93,0004.57
2023-11-07 00:35:00,SystemResetWarning,0823.6,5.00,000.00,028.1,025.7,000.0,036.2,029.6,10.9,0005.6,0021.85,0005.98,0004.58
2023-11-07 00:36:00,SystemResetWarning,0823.6,5.00,000.00,028.0,024.2,000.0,036.2,029.3,10.9,0002.0,0019.74,0005.93,0004.57
2023-11-07 00:37:00,SystemResetWarning,0823.6,5.01,000.00,027.8,024.0,000.0,036.1,029.0,10.9,0001.5,0019.49,0005.93,0004.59
2023-11-07 00:38:00,SystemResetWarning,0823.6,5.00,000.00,027.7,024.4,000.0,036.1,028.7,11.3,0002.9,0020.15,0005.94,0004.61
2023-11-07 00:39:00,SystemResetWarning,0823.6,4.99,000.00,027.6,024.8,000.0,036.1,028.7,11.4,0001.2,0019.49,0005.97,0004.62
2023-11-07 00:40:00,SystemResetWarning,0823.6,5.00,000.00,027.6,025.2,000.0,036.0,028.8,11.3,0004.5,0019.44,0005.96,0004.60
2023-11-07 00:41:00,SystemResetWarning,0823.6,5.01,000.00,027.6,025.5,000.0,036.0,028.9,11.3,0004.9,0019.52,0005.94,0004.59
2023-11-07 00:42:00,SystemResetWarning,0823.6,5.00,000.00,027.6,025.8,000.0,036.0,028.9,11.4,0005.4,0019.42,0005.87,0004.59
2023-11-07 00:43:00,SystemResetWarning,0823.7,5.00,000.00,027.6,026.0,000.0,036.0,029.0,11.4,0005.1,0020.64,0005.86,0004.59
2023-11-07 00:44:00,SystemResetWarning,0823.7,4.99,000.00,027.6,026.2,000.0,036.0,029.0,11.4,0004.2,0020.30,0005.86,0004.60
2023-11-07 00:45:00,SystemResetWarning,0823.6,4.99,000.00,027.6,026.3,000.0,036.0,029.1,11.5,0004.1,0020.31,0005.86,0004.60
2023-11-07 00:46:00,SystemResetWarning,0823.6,5.00,000.00,027.6,026.4,000.0,036.0,029.2,11.4,0003.9,0020.16,0005.83,0004.59
2023-11-07 00:47:00,SystemResetWarning,0823.6,5.00,000.00,027.6,026.5,000.0,036.0,029.2,11.4,0003.3,0021.26,0005.83,0004.59
2023-11-07 00:48:00,SystemResetWarning,0823.6,5.00,000.00,027.7,026.6,000.0,036.0,029.2,11.3,0003.2,0021.57,0005.88,0004.59
2023-11-07 00:49:00,SystemResetWarning,0823.7,5.00,000.00,027.7,026.7,000.0,036.0,029.3,11.2,0000.0,0022.08,0005.91,0004.59
2023-11-07 00:50:00,SystemResetWarning,0823.7,5.00,000.00,027.7,026.8,000.0,036.0,029.3,11.2,0000.0,0021.91,0005.92,0004.60
2023-11-07 00:51:00,SystemResetWarning,0823.7,5.00,000.00,027.8,026.9,000.0,036.0,029.3,11.2,0001.8,0022.34,0006.00,0004.64
2023-11-07 00:52:00,SystemResetWarning,0823.7,5.01,000.00,027.8,026.9,000.0,036.0,029.4,11.2,0001.7,0023.38,0006.05,0004.67
2023-11-07 00:53:00,SystemResetWarning,0823.7,5.00,000.00,027.8,026.9,000.0,036.0,029.4,11.2,0005.1,0024.52,0006.16,0004.71
2023-11-07 00:54:00,SystemResetWarning,0823.7,5.01,000.00,027.8,027.0,000.0,036.1,029.4,11.2,0005.3,0025.71,0006.25,0004.74
2023-11-07 00:55:00,SystemResetWarning,0823.7,5.00,000.00,027.9,027.0,000.0,036.1,029.4,11.2,0005.7,0026.06,0006.30,0004.77
2023-11-07 00:56:00,SystemResetWarning,0823.7,4.99,000.00,027.9,027.1,000.0,036.1,029.5,11.1,0005.9,0024.91,0006.35,0004.80
2023-11-07 00:57:00,SystemResetWarning,0823.7,5.00,000.00,027.9,027.1,000.0,036.1,029.5,11.1,0005.9,0025.40,0006.37,0004.83
2023-11-07 00:58:00,SystemResetWarning,0823.7,4.99,000.00,027.9,027.1,000.0,036.1,029.5,11.1,0006.2,0025.94,0006.48,0004.87
2023-11-07 00:59:00,SystemResetWarning,0823.7,5.00,000.00,028.0,027.2,000.0,036.2,029.5,11.1,0006.4,0026.42,0006.58,0004.90
